Location: San Antonio
(29.4240°N, 98.4930°W)
Time: 07:37:46
(UTC-05:00)

deb Explorer IX - All Passes

Search period start: 19 July 2024 00:00
Search period end: 29 July 2024 00:00
Orbit: 510 x 879 km, 38.7° (Epoch: 18 July)

Date Brightness Start Highest point End Pass type
(mag) Time Alt. Az. Time Alt. Az. Time Alt. Az.
19 Jul - 01:12:38 10° NW 01:17:04 28° N 01:21:06 10° ENE visible
19 Jul - 02:57:04 10° WNW 03:01:45 58° NNE 03:05:57 10° ESE night (unlit)
19 Jul - 04:41:48 10° W 04:45:28 27° SW 04:48:55 10° SSE night (unlit)
19 Jul - 18:57:06 10° S 19:00:44 16° SE 19:04:19 10° E daylight
19 Jul - 20:38:38 10° SW 20:44:37 68° SSE 20:50:12 10° ENE daylight
19 Jul - 22:23:33 10° W 22:29:04 43° NNW 22:34:08 10° NE visible
20 Jul - 00:09:22 10° WNW 00:14:02 28° N 00:18:17 10° ENE visible
20 Jul - 01:54:12 10° NW 01:58:57 41° NNE 02:03:11 10° E visible
20 Jul - 03:38:34 10° WNW 03:43:04 53° SSW 03:47:09 10° SE night (unlit)
20 Jul - 19:36:07 10° SSW 19:41:47 42° SE 19:47:14 10° ENE daylight
20 Jul - 21:20:08 10° WSW 21:26:02 60° NNW 21:31:31 10° ENE visible
20 Jul - 23:05:52 10° WNW 23:10:53 31° N 23:15:30 10° NE visible
21 Jul - 00:51:10 10° NW 00:55:56 33° N 01:00:15 10° ENE visible
21 Jul - 02:35:32 10° WNW 02:40:27 86° NNE 02:44:49 10° ESE night (unlit)
21 Jul - 04:21:04 10° W 04:23:56 17° SW 04:26:39 10° S night (unlit)
21 Jul - 18:34:06 10° SSW 18:38:58 25° SE 18:43:47 10° E daylight
21 Jul - 20:16:55 10° WSW 20:22:59 88° NNW 20:28:46 10° ENE daylight
21 Jul - 22:02:15 10° W 22:07:40 37° NNW 22:12:43 10° NE visible
21 Jul - 23:47:54 10° WNW 23:52:46 30° N 23:57:14 10° ENE visible
22 Jul - 01:32:30 10° WNW 01:37:36 55° NNE 01:42:07 10° E visible
22 Jul - 03:17:11 10° WNW 03:21:29 33° SW 03:25:22 10° SSE night (unlit)
22 Jul - 17:33:06 10° SSE 17:36:13 14° SE 17:39:19 10° ESE daylight
22 Jul - 19:13:59 10° SW 19:19:58 61° SSE 19:25:48 10° ENE daylight
22 Jul - 20:58:37 10° W 21:04:26 48° NNW 21:09:55 10° NE visible
22 Jul - 22:44:23 10° WNW 22:49:28 31° N 22:54:10 10° ENE visible
23 Jul - 00:29:22 10° NW 00:34:31 41° NNE 00:39:08 10° E visible
23 Jul - 02:13:48 10° WNW 02:18:49 63° SSW 02:23:16 10° SE night (unlit)
23 Jul - 04:01:42 10° SW 04:02:05 10° SW 04:02:27 10° SW night (unlit)
23 Jul - 18:11:28 10° SSW 18:16:59 38° SE 18:22:29 10° ENE daylight
23 Jul - 19:55:08 10° WSW 20:01:11 67° NNW 20:07:01 10° ENE daylight
23 Jul - 21:40:43 10° WNW 21:46:05 34° N 21:51:07 10° NE visible
23 Jul - 23:26:06 10° NW 23:31:14 34° N 23:35:56 10° ENE visible
24 Jul - 01:10:34 10° WNW 01:15:55 78° NNE 01:20:39 10° ESE visible
24 Jul - 02:55:49 10° W 02:59:33 22° SW 03:03:00 10° S night (unlit)
24 Jul - 17:09:34 10° S 17:14:03 22° SE 17:18:36 10° E daylight
24 Jul - 18:51:54 10° WSW 18:57:57 85° SSE 19:03:58 10° ENE daylight
24 Jul - 20:36:58 10° W 20:42:39 40° NNW 20:48:05 10° NE daylight
24 Jul - 22:22:36 10° WNW 22:27:49 32° N 22:32:40 10° ENE visible
25 Jul - 00:07:19 10° WNW 00:12:47 53° NNE 00:17:41 10° E visible
25 Jul - 01:51:57 10° WNW 01:56:51 41° SW 02:01:14 10° SE night (unlit)
25 Jul - 16:09:11 10° SSE 16:11:12 12° SE 16:13:13 10° ESE daylight
25 Jul - 17:48:59 10° SW 17:54:47 54° SE 18:00:40 10° ENE daylight
25 Jul - 19:33:16 10° W 19:39:11 53° NNW 19:45:00 10° ENE daylight
25 Jul - 21:18:55 10° WNW 21:24:16 32° N 21:29:21 10° ENE visible
25 Jul - 23:03:58 10° NW 23:09:26 41° NNE 23:14:25 10° E visible
26 Jul - 00:48:25 10° WNW 00:53:54 74° SSW 00:58:47 10° SE visible
26 Jul - 02:34:43 10° WSW 02:37:19 14° SW 02:39:47 10° SSW night (unlit)
26 Jul - 16:46:32 10° SSW 16:51:40 33° SE 16:57:00 10° E daylight
26 Jul - 18:29:45 10° WSW 18:35:46 73° NNW 18:41:49 10° ENE daylight
26 Jul - 20:15:06 10° WNW 20:20:39 36° N 20:26:02 10° ENE daylight
26 Jul - 22:00:28 10° WNW 22:05:53 35° N 22:10:57 10° ENE visible
26 Jul - 23:45:00 10° WNW 23:50:43 71° NNE 23:55:52 10° ESE visible
27 Jul - 01:30:01 10° W 01:34:32 28° SW 01:38:40 10° SSE night (unlit)
27 Jul - 15:44:49 10° S 15:48:40 18° SE 15:52:38 10° E daylight
27 Jul - 17:26:31 10° SW 17:32:23 76° SSE 17:38:28 10° ENE daylight
27 Jul - 19:11:16 10° W 19:17:01 43° NNW 19:22:43 10° NE daylight
27 Jul - 20:56:49 10° WNW 21:02:13 33° N 21:07:24 10° ENE visible
27 Jul - 22:41:33 10° WNW 22:47:18 51° NNE 22:52:34 10° E visible
28 Jul - 00:26:07 10° WNW 00:31:33 51° SW 00:36:27 10° SE visible
28 Jul - 16:23:39 10° SW 16:29:05 47° SE 16:34:51 10° ENE daylight
28 Jul - 18:07:33 10° W 18:13:24 57° NNW 18:19:22 10° ENE daylight
28 Jul - 19:52:59 10° WNW 19:58:27 34° N 20:03:49 10° ENE daylight
28 Jul - 21:38:03 10° NW 21:43:41 40° NNE 21:49:00 10° E visible
28 Jul - 23:22:28 10° WNW 23:28:19 85° SSW 23:33:38 10° ESE visible
